| time (UTC) | temp C | wind direction | speed KPH | gust KPH | rain 1hr cm | rain 24hr cm | rain mn cm | humidity % | barometer mb |
| 20260502205813 | 31 | 210 | 1.6 | 1.6 | 0.00 | 0.00 | 0.00 | 15 | 1014.6 |
| 20260502205309 | 32 | 154 | 1.6 | 3.2 | 0.00 | 0.00 | 0.00 | 14 | 1014.7 |
| 20260502204806 | 32 | 235 | 1.6 | 1.6 | 0.00 | 0.00 | 0.00 | 14 | 1014.7 |
| 20260502204303 | 31 | 232 | 0.0 | 0.0 | 0.00 | 0.00 | 0.00 | 15 | 1014.6 |
| 20260502203801 | 31 | 270 | 1.6 | 1.6 | 0.00 | 0.00 | 0.00 | 16 | 1014.7 |
| 20260502203258 | 31 | 254 | 1.6 | 1.6 | 0.00 | 0.00 | 0.00 | 14 | 1014.8 |
| 20260502202758 | 32 | 102 | 4.8 | 4.8 | 0.00 | 0.00 | 0.00 | 11 | 1015.0 |
| 20260502202256 | 32 | 264 | 3.2 | 3.2 | 0.00 | 0.00 | 0.00 | 10 | 1015.0 |
| 20260502201754 | 31 | 242 | 1.6 | 1.6 | 0.00 | 0.00 | 0.00 | 11 | 1015.3 |
| 20260502201254 | 31 | 162 | 4.8 | 4.8 | 0.00 | 0.00 | 0.00 | 12 | 1015.4 |
| 20260502200751 | 32 | 242 | 1.6 | 3.2 | 0.00 | 0.00 | 0.00 | 13 | 1015.3 |
| 20260502200247 | 31 | 139 | 1.6 | 3.2 | 0.00 | 0.00 | 0.00 | 15 | 1015.6 |
| 20260502195746 | 31 | 124 | 3.2 | 3.2 | 0.00 | 0.00 | 0.00 | 16 | 1015.5 |
| 20260502195242 | 31 | 215 | 3.2 | 3.2 | 0.00 | 0.00 | 0.00 | 17 | 1015.7 |
| 20260502194738 | 31 | 122 | 4.8 | 4.8 | 0.00 | 0.00 | 0.00 | 16 | 1015.6 |
| 20260502194236 | 30 | 80 | 4.8 | 8.0 | 0.00 | 0.00 | 0.00 | 17 | 1015.5 |
| 20260502193731 | 31 | 199 | 3.2 | 3.2 | 0.00 | 0.00 | 0.00 | 18 | 1015.6 |
| 20260502193229 | 31 | 158 | 6.4 | 8.0 | 0.00 | 0.00 | 0.00 | 16 | 1015.7 |
| 20260502192729 | 30 | 169 | 8.0 | 9.7 | 0.00 | 0.00 | 0.00 | 17 | 1015.7 |
| 20260502192227 | 31 | 205 | 3.2 | 4.8 | 0.00 | 0.00 | 0.00 | 18 | 1016.0 |
| 20260502191723 | 31 | 138 | 1.6 | 3.2 | 0.00 | 0.00 | 0.00 | 17 | 1015.8 |
| 20260502191221 | 30 | 100 | 4.8 | 4.8 | 0.00 | 0.00 | 0.00 | 18 | 1016.0 |
| 20260502190718 | 30 | 139 | 8.0 | 11.3 | 0.00 | 0.00 | 0.00 | 19 | 1016.1 |
| 20260502190216 | 30 | 212 | 3.2 | 3.2 | 0.00 | 0.00 | 0.00 | 19 | 1016.2 |
| 20260502185715 | 30 | 180 | 6.4 | 12.9 | 0.00 | 0.00 | 0.00 | 19 | 1016.2 |
| 20260502185212 | 30 | 187 | 4.8 | 4.8 | 0.00 | 0.00 | 0.00 | 20 | 1016.1 |
| 20260502184708 | 30 | 185 | 4.8 | 11.3 | 0.00 | 0.00 | 0.00 | 20 | 1016.3 |
| 20260502184204 | 30 | 178 | 3.2 | 3.2 | 0.00 | 0.00 | 0.00 | 21 | 1016.3 |
| 20260502183701 | 30 | 217 | 3.2 | 3.2 | 0.00 | 0.00 | 0.00 | 21 | 1016.6 |
| 20260502183157 | 30 | 184 | 3.2 | 3.2 | 0.00 | 0.00 | 0.00 | 21 | 1016.5 |
| 20260502182652 | 30 | 142 | 3.2 | 3.2 | 0.00 | 0.00 | 0.00 | 21 | 1016.6 |
| 20260502182148 | 30 | 159 | 6.4 | 8.0 | 0.00 | 0.00 | 0.00 | 21 | 1016.6 |
| 20260502181646 | 29 | 108 | 6.4 | 9.7 | 0.00 | 0.00 | 0.00 | 21 | 1016.7 |
| 20260502181145 | 30 | 224 | 4.8 | 4.8 | 0.00 | 0.00 | 0.00 | 21 | 1016.9 |
| 20260502180641 | 30 | 199 | 3.2 | 3.2 | 0.00 | 0.00 | 0.00 | 20 | 1016.8 |
| 20260502180138 | 29 | 182 | 6.4 | 11.3 | 0.00 | 0.00 | 0.00 | 21 | 1016.8 |
| 20260502164049 | 27 | 143 | 11.3 | 17.7 | 0.00 | 0.00 | 0.00 | 18 | 1017.1 |
| 20260502163545 | 27 | 134 | 4.8 | 4.8 | 0.00 | 0.00 | 0.00 | 18 | 1017.0 |
| 20260502163042 | 27 | 197 | 3.2 | 4.8 | 0.00 | 0.00 | 0.00 | 18 | 1017.0 |
| 20260502162539 | 27 | 134 | 3.2 | 3.2 | 0.00 | 0.00 | 0.00 | 18 | 1017.1 |
| 20260502162036 | 27 | 63 | 4.8 | 8.0 | 0.00 | 0.00 | 0.00 | 18 | 1017.0 |
| 20260502161533 | 27 | 122 | 3.2 | 4.8 | 0.00 | 0.00 | 0.00 | 18 | 1016.9 |
| 20260502161031 | 27 | 90 | 6.4 | 8.0 | 0.00 | 0.00 | 0.00 | 18 | 1017.0 |
| 20260502160528 | 27 | 217 | 4.8 | 8.0 | 0.00 | 0.00 | 0.00 | 18 | 1016.7 |
| 20260502151924 | 26 | 162 | 3.2 | 4.8 | 0.00 | 0.00 | 0.00 | 18 | 1016.4 |
| 20260502151420 | 26 | 143 | 3.2 | 3.2 | 0.00 | 0.00 | 0.00 | 18 | 1016.8 |
| 20260502150918 | 25 | 82 | 3.2 | 3.2 | 0.00 | 0.00 | 0.00 | 18 | 1016.4 |
| 20260502150415 | 25 | 188 | 6.4 | 8.0 | 0.00 | 0.00 | 0.00 | 18 | 1016.5 |
| 20260502130301 | 17 | 234 | 0.0 | 0.0 | 0.00 | 0.00 | 0.00 | 26 | 1015.0 |
| 20260502123746 | 17 | 246 | 0.0 | 0.0 | 0.00 | 0.00 | 0.00 | 26 | 1014.7 |
| 20260502123243 | 17 | 237 | 0.0 | 0.0 | 0.00 | 0.00 | 0.00 | 25 | 1014.6 |
| 20260502122740 | 17 | 249 | 0.0 | 0.0 | 0.00 | 0.00 | 0.00 | 25 | 1014.7 |
| 20260502122236 | 17 | 236 | 0.0 | 0.0 | 0.00 | 0.00 | 0.00 | 26 | 1014.6 |
| 20260502121734 | 16 | 244 | 0.0 | 0.0 | 0.00 | 0.00 | 0.00 | 28 | 1014.5 |
| 20260502121232 | 16 | 259 | 0.0 | 0.0 | 0.00 | 0.00 | 0.00 | 27 | 1014.5 |
| 20260502120728 | 17 | 246 | 0.0 | 0.0 | 0.00 | 0.00 | 0.00 | 26 | 1014.2 |
| 20260502120225 | 17 | 246 | 0.0 | 0.0 | 0.00 | 0.00 | 0.00 | 26 | 1014.5 |
| 20260502115723 | 17 | 246 | 0.0 | 0.0 | 0.00 | 0.00 | 0.00 | 26 | 1014.3 |
| 20260502115219 | 18 | 263 | 0.0 | 1.6 | 0.00 | 0.00 | 0.00 | 25 | 1014.4 |
| 20260502114715 | 18 | 281 | 0.0 | 1.6 | 0.00 | 0.00 | 0.00 | 24 | 1014.3 |
| 20260502114213 | 18 | 247 | 0.0 | 0.0 | 0.00 | 0.00 | 0.00 | 25 | 1014.2 |
| 20260502113709 | 18 | 238 | 0.0 | 0.0 | 0.00 | 0.00 | 0.00 | 24 | 1014.3 |
| 20260502113207 | 19 | 235 | 0.0 | 0.0 | 0.00 | 0.00 | 0.00 | 24 | 1014.3 |
| 20260502112705 | 18 | 235 | 1.6 | 1.6 | 0.00 | 0.00 | 0.00 | 24 | 1014.2 |
| 20260502112203 | 18 | 236 | 0.0 | 0.0 | 0.00 | 0.00 | 0.00 | 24 | 1014.1 |
| 20260502111659 | 18 | 234 | 0.0 | 0.0 | 0.00 | 0.00 | 0.00 | 24 | 1014.2 |
| 20260502111157 | 19 | 234 | 0.0 | 0.0 | 0.00 | 0.00 | 0.00 | 24 | 1014.2 |
| 20260502110655 | 19 | 232 | 0.0 | 0.0 | 0.00 | 0.00 | 0.00 | 24 | 1014.1 |
| 20260502110152 | 19 | 231 | 0.0 | 1.6 | 0.00 | 0.00 | 0.00 | 24 | 1014.2 |
| 20260502105649 | 18 | 237 | 0.0 | 0.0 | 0.00 | 0.00 | 0.00 | 25 | 1014.2 |
| 20260502105146 | 18 | 238 | 0.0 | 0.0 | 0.00 | 0.00 | 0.00 | 25 | 1014.2 |
| 20260502104643 | 19 | 235 | 0.0 | 0.0 | 0.00 | 0.00 | 0.00 | 24 | 1014.3 |
| 20260502104141 | 19 | 234 | 0.0 | 0.0 | 0.00 | 0.00 | 0.00 | 24 | 1014.2 |
| 20260502103638 | 19 | 235 | 0.0 | 0.0 | 0.00 | 0.00 | 0.00 | 24 | 1014.3 |
| 20260502103136 | 19 | 237 | 0.0 | 0.0 | 0.00 | 0.00 | 0.00 | 24 | 1014.0 |
| 20260502102633 | 20 | 235 | 0.0 | 0.0 | 0.00 | 0.00 | 0.00 | 23 | 1014.3 |
| 20260502102129 | 20 | 235 | 0.0 | 0.0 | 0.00 | 0.00 | 0.00 | 23 | 1014.2 |
| 20260502101627 | 20 | 229 | 0.0 | 0.0 | 0.00 | 0.00 | 0.00 | 23 | 1014.0 |
| 20260502101126 | 20 | 168 | 3.2 | 3.2 | 0.00 | 0.00 | 0.00 | 22 | 1014.0 |
| 20260502100624 | 21 | 356 | 1.6 | 3.2 | 0.00 | 0.00 | 0.00 | 22 | 1014.1 |
| 20260502100122 | 21 | 21 | 0.0 | 1.6 | 0.00 | 0.00 | 0.00 | 22 | 1014.0 |
| 20260502091055 | 23 | 41 | 4.8 | 8.0 | 0.00 | 0.00 | 0.00 | 19 | 1013.6 |
| 20260502090552 | 23 | 17 | 6.4 | 9.7 | 0.00 | 0.00 | 0.00 | 18 | 1013.6 |
| 20260502071447 | 23 | 236 | 0.0 | 1.6 | 0.00 | 0.00 | 0.00 | 16 | 1013.5 |
| 20260502070945 | 23 | 308 | 1.6 | 1.6 | 0.00 | 0.00 | 0.00 | 16 | 1013.6 |
| 20260502070443 | 22 | 268 | 1.6 | 1.6 | 0.00 | 0.00 | 0.00 | 16 | 1013.4 |
| 20260502065941 | 23 | 254 | 0.0 | 0.0 | 0.00 | 0.00 | 0.00 | 16 | 1013.7 |
| 20260502065439 | 22 | 271 | 0.0 | 1.6 | 0.00 | 0.00 | 0.00 | 16 | 1013.5 |
| 20260502064937 | 22 | 290 | 1.6 | 3.2 | 0.00 | 0.00 | 0.00 | 15 | 1013.6 |
| 20260502064434 | 22 | 302 | 1.6 | 3.2 | 0.00 | 0.00 | 0.00 | 15 | 1013.4 |
| 20260502063931 | 23 | 260 | 1.6 | 1.6 | 0.00 | 0.00 | 0.00 | 15 | 1013.4 |
| 20260502063429 | 23 | 28 | 1.6 | 1.6 | 0.00 | 0.00 | 0.00 | 15 | 1013.4 |
| 20260502062927 | 23 | 283 | 1.6 | 1.6 | 0.00 | 0.00 | 0.00 | 14 | 1013.3 |
| 20260502062424 | 23 | 246 | 0.0 | 1.6 | 0.00 | 0.00 | 0.00 | 14 | 1013.4 |
| 20260502061923 | 23 | 47 | 1.6 | 1.6 | 0.00 | 0.00 | 0.00 | 14 | 1013.3 |
| 20260502061420 | 23 | 249 | 0.0 | 0.0 | 0.00 | 0.00 | 0.00 | 14 | 1012.9 |
| 20260502060916 | 23 | 239 | 0.0 | 0.0 | 0.00 | 0.00 | 0.00 | 14 | 1013.3 |
| 20260502060410 | 23 | 268 | 3.2 | 3.2 | 0.00 | 0.00 | 0.00 | 14 | 1013.2 |
| 20260502055908 | 23 | 329 | 1.6 | 3.2 | 0.00 | 0.00 | 0.00 | 14 | 1012.8 |
| 20260502055405 | 23 | 255 | 3.2 | 4.8 | 0.00 | 0.00 | 0.00 | 14 | 1012.6 |
| 20260502054900 | 24 | 298 | 3.2 | 3.2 | 0.00 | 0.00 | 0.00 | 13 | 1012.7 |
| 20260502054357 | 25 | 335 | 1.6 | 1.6 | 0.00 | 0.00 | 0.00 | 13 | 1012.7 |
| 20260502053854 | 25 | 248 | 1.6 | 1.6 | 0.00 | 0.00 | 0.00 | 13 | 1012.9 |
| 20260502053352 | 25 | 240 | 1.6 | 1.6 | 0.00 | 0.00 | 0.00 | 13 | 1012.6 |
| 20260502052849 | 25 | 240 | 1.6 | 1.6 | 0.00 | 0.00 | 0.00 | 13 | 1012.5 |
| 20260502052347 | 25 | 228 | 3.2 | 3.2 | 0.00 | 0.00 | 0.00 | 13 | 1012.7 |
| 20260502051844 | 25 | 229 | 1.6 | 1.6 | 0.00 | 0.00 | 0.00 | 13 | 1012.6 |
| 20260502051343 | 26 | 255 | 1.6 | 1.6 | 0.00 | 0.00 | 0.00 | 14 | 1012.4 |
| 20260502050839 | 26 | 252 | 1.6 | 3.2 | 0.00 | 0.00 | 0.00 | 14 | 1012.6 |
| 20260502050336 | 26 | 243 | 3.2 | 3.2 | 0.00 | 0.00 | 0.00 | 13 | 1012.6 |
| 20260502045833 | 27 | 256 | 1.6 | 1.6 | 0.00 | 0.00 | 0.00 | 13 | 1012.5 |
| 20260502045329 | 26 | 258 | 1.6 | 3.2 | 0.00 | 0.00 | 0.00 | 13 | 1012.5 |
| 20260502044827 | 26 | 243 | 3.2 | 3.2 | 0.00 | 0.00 | 0.00 | 15 | 1012.4 |
| 20260502044323 | 25 | 261 | 1.6 | 1.6 | 0.00 | 0.00 | 0.00 | 16 | 1012.4 |
| 20260502043820 | 25 | 249 | 0.0 | 1.6 | 0.00 | 0.00 | 0.00 | 17 | 1012.3 |
| 20260502043318 | 24 | 229 | 0.0 | 0.0 | 0.00 | 0.00 | 0.00 | 18 | 1012.5 |
| 20260502042817 | 23 | 262 | 1.6 | 1.6 | 0.00 | 0.00 | 0.00 | 19 | 1012.5 |
| 20260502042315 | 22 | 227 | 0.0 | 0.0 | 0.00 | 0.00 | 0.00 | 20 | 1012.1 |
| 20260502041812 | 23 | 226 | 0.0 | 0.0 | 0.00 | 0.00 | 0.00 | 20 | 1012.1 |
| 20260502041309 | 23 | 226 | 0.0 | 0.0 | 0.00 | 0.00 | 0.00 | 20 | 1012.2 |
| 20260502040806 | 23 | 226 | 0.0 | 0.0 | 0.00 | 0.00 | 0.00 | 20 | 1012.0 |
| 20260502040303 | 23 | 226 | 0.0 | 0.0 | 0.00 | 0.00 | 0.00 | 20 | 1012.2 |
| 20260502035759 | 23 | 226 | 0.0 | 0.0 | 0.00 | 0.00 | 0.00 | 20 | 1011.9 |
| 20260502035256 | 23 | 226 | 0.0 | 0.0 | 0.00 | 0.00 | 0.00 | 20 | 1011.9 |
| 20260502034753 | 23 | 225 | 0.0 | 0.0 | 0.00 | 0.00 | 0.00 | 20 | 1011.8 |
| 20260502034251 | 23 | 225 | 0.0 | 0.0 | 0.00 | 0.00 | 0.00 | 20 | 1011.8 |
| 20260502033749 | 24 | 225 | 0.0 | 0.0 | 0.00 | 0.00 | 0.00 | 19 | 1011.7 |
| 20260502033247 | 24 | 225 | 0.0 | 0.0 | 0.00 | 0.00 | 0.00 | 19 | 1011.8 |
| 20260502032743 | 25 | 240 | 0.0 | 0.0 | 0.00 | 0.00 | 0.00 | 18 | 1011.6 |
| 20260502032239 | 25 | 240 | 0.0 | 0.0 | 0.00 | 0.00 | 0.00 | 18 | 1011.6 |
| 20260502031738 | 26 | 239 | 0.0 | 0.0 | 0.00 | 0.00 | 0.00 | 17 | 1011.4 |
| 20260502031235 | 26 | 240 | 0.0 | 0.0 | 0.00 | 0.00 | 0.00 | 17 | 1011.3 |
| 20260502030734 | 26 | 245 | 1.6 | 1.6 | 0.00 | 0.00 | 0.00 | 17 | 1011.1 |
| 20260502030231 | 26 | 225 | 1.6 | 1.6 | 0.00 | 0.00 | 0.00 | 18 | 1011.4 |
| 20260502025728 | 26 | 233 | 0.0 | 0.0 | 0.00 | 0.00 | 0.00 | 17 | 1011.2 |
| 20260502025226 | 26 | 238 | 0.0 | 0.0 | 0.00 | 0.00 | 0.00 | 18 | 1011.2 |
| 20260502024724 | 27 | 238 | 0.0 | 0.0 | 0.00 | 0.00 | 0.00 | 17 | 1011.1 |
| 20260502024221 | 27 | 234 | 0.0 | 0.0 | 0.00 | 0.00 | 0.00 | 17 | 1011.0 |
| 20260502023719 | 27 | 218 | 0.0 | 0.0 | 0.00 | 0.00 | 0.00 | 17 | 1011.3 |
| 20260502023216 | 28 | 238 | 0.0 | 1.6 | 0.00 | 0.00 | 0.00 | 17 | 1010.8 |
| 20260502022714 | 28 | 230 | 0.0 | 0.0 | 0.00 | 0.00 | 0.00 | 16 | 1011.0 |
| 20260502022210 | 28 | 227 | 0.0 | 0.0 | 0.00 | 0.00 | 0.00 | 16 | 1010.8 |
| 20260502021708 | 28 | 228 | 1.6 | 1.6 | 0.00 | 0.00 | 0.00 | 16 | 1010.7 |
| 20260502021205 | 28 | 238 | 1.6 | 1.6 | 0.00 | 0.00 | 0.00 | 16 | 1011.1 |
| 20260502020702 | 28 | 236 | 1.6 | 3.2 | 0.00 | 0.00 | 0.00 | 15 | 1010.7 |
| 20260502020159 | 29 | 250 | 1.6 | 3.2 | 0.00 | 0.00 | 0.00 | 15 | 1010.5 |
| 20260502015657 | 29 | 219 | 1.6 | 3.2 | 0.00 | 0.00 | 0.00 | 15 | 1010.8 |
| 20260502015152 | 29 | 196 | 4.8 | 8.0 | 0.00 | 0.00 | 0.00 | 15 | 1010.4 |
| 20260502014650 | 29 | 235 | 4.8 | 9.7 | 0.00 | 0.00 | 0.00 | 15 | 1010.4 |
| 20260502014147 | 30 | 225 | 1.6 | 1.6 | 0.00 | 0.00 | 0.00 | 15 | 1010.4 |
| 20260502013643 | 30 | 202 | 1.6 | 1.6 | 0.00 | 0.00 | 0.00 | 14 | 1010.5 |
| 20260502013138 | 30 | 187 | 3.2 | 4.8 | 0.00 | 0.00 | 0.00 | 14 | 1010.3 |
| 20260502012636 | 30 | 238 | 1.6 | 3.2 | 0.00 | 0.00 | 0.00 | 14 | 1010.4 |
| 20260502012134 | 30 | 202 | 4.8 | 4.8 | 0.00 | 0.00 | 0.00 | 13 | 1010.3 |
| 20260502011631 | 31 | 231 | 3.2 | 4.8 | 0.00 | 0.00 | 0.00 | 13 | 1010.2 |
| 20260502011126 | 31 | 238 | 1.6 | 1.6 | 0.00 | 0.00 | 0.00 | 13 | 1010.4 |
| 20260502010624 | 31 | 235 | 4.8 | 4.8 | 0.00 | 0.00 | 0.00 | 12 | 1010.0 |
| 20260502010120 | 31 | 241 | 1.6 | 1.6 | 0.00 | 0.00 | 0.00 | 13 | 1010.4 |
| 20260502005618 | 31 | 239 | 1.6 | 1.6 | 0.00 | 0.00 | 0.00 | 13 | 1010.4 |
| 20260502005115 | 30 | 197 | 4.8 | 8.0 | 0.00 | 0.00 | 0.00 | 13 | 1010.5 |
| 20260502004611 | 30 | 171 | 6.4 | 9.7 | 0.00 | 0.00 | 0.00 | 13 | 1010.5 |
| 20260502004108 | 30 | 166 | 4.8 | 8.0 | 0.00 | 0.00 | 0.00 | 13 | 1010.3 |
| 20260502003606 | 31 | 216 | 6.4 | 9.7 | 0.00 | 0.00 | 0.00 | 13 | 1010.5 |
| 20260502003103 | 30 | 197 | 4.8 | 4.8 | 0.00 | 0.00 | 0.00 | 14 | 1010.6 |
| 20260502002559 | 31 | 212 | 1.6 | 3.2 | 0.00 | 0.00 | 0.00 | 14 | 1010.3 |
| 20260502002056 | 31 | 200 | 4.8 | 4.8 | 0.00 | 0.00 | 0.00 | 14 | 1010.4 |
| 20260502001554 | 31 | 241 | 1.6 | 1.6 | 0.00 | 0.00 | 0.00 | 14 | 1010.4 |
| 20260502001051 | 31 | 200 | 4.8 | 4.8 | 0.00 | 0.00 | 0.00 | 14 | 1010.6 |
| 20260502000549 | 31 | 183 | 3.2 | 3.2 | 0.00 | 0.00 | 0.00 | 14 | 1010.5 |
| 20260502000046 | 30 | 225 | 6.4 | 9.7 | 0.00 | 0.00 | 0.00 | 15 | 1010.6 |
| 20260501235542 | 31 | 206 | 6.4 | 9.7 | 0.00 | 0.00 | 0.00 | 15 | 1010.7 |
| 20260501235038 | 31 | 245 | 1.6 | 1.6 | 0.00 | 0.00 | 0.00 | 14 | 1011.0 |
| 20260501234534 | 31 | 211 | 4.8 | 4.8 | 0.00 | 0.00 | 0.00 | 14 | 1010.7 |
| 20260501234032 | 31 | 204 | 6.4 | 9.7 | 0.00 | 0.00 | 0.00 | 15 | 1010.6 |
| 20260501233530 | 31 | 215 | 3.2 | 3.2 | 0.00 | 0.00 | 0.00 | 14 | 1010.8 |
| 20260501233026 | 31 | 170 | 8.0 | 9.7 | 0.00 | 0.00 | 0.00 | 15 | 1011.1 |
| 20260501232522 | 31 | 210 | 4.8 | 11.3 | 0.00 | 0.00 | 0.00 | 15 | 1011.0 |
| 20260501232020 | 31 | 199 | 8.0 | 11.3 | 0.00 | 0.00 | 0.00 | 15 | 1010.8 |
| 20260501231518 | 30 | 208 | 3.2 | 3.2 | 0.00 | 0.00 | 0.00 | 15 | 1010.8 |
| 20260501231016 | 31 | 217 | 4.8 | 8.0 | 0.00 | 0.00 | 0.00 | 15 | 1011.2 |
| 20260501230515 | 31 | 249 | 0.0 | 1.6 | 0.00 | 0.00 | 0.00 | 16 | 1011.1 |
| 20260501230012 | 31 | 186 | 4.8 | 4.8 | 0.00 | 0.00 | 0.00 | 15 | 1011.3 |
| 20260501225510 | 31 | 264 | 3.2 | 4.8 | 0.00 | 0.00 | 0.00 | 15 | 1011.3 |
| 20260501225005 | 31 | 225 | 1.6 | 3.2 | 0.00 | 0.00 | 0.00 | 15 | 1011.3 |
| 20260501224503 | 31 | 183 | 1.6 | 3.2 | 0.00 | 0.00 | 0.00 | 15 | 1011.4 |
| 20260501224000 | 31 | 260 | 1.6 | 1.6 | 0.00 | 0.00 | 0.00 | 15 | 1011.5 |
| 20260501223456 | 31 | 245 | 0.0 | 0.0 | 0.00 | 0.00 | 0.00 | 16 | 1011.6 |
| 20260501222951 | 31 | 238 | 3.2 | 3.2 | 0.00 | 0.00 | 0.00 | 15 | 1011.2 |
| 20260501222449 | 31 | 236 | 0.0 | 1.6 | 0.00 | 0.00 | 0.00 | 16 | 1011.6 |
| 20260501221944 | 31 | 237 | 1.6 | 1.6 | 0.00 | 0.00 | 0.00 | 16 | 1011.8 |
| 20260501221442 | 32 | 244 | 1.6 | 1.6 | 0.00 | 0.00 | 0.00 | 16 | 1011.8 |
| 20260501220940 | 31 | 243 | 3.2 | 3.2 | 0.00 | 0.00 | 0.00 | 15 | 1011.8 |
| 20260501220437 | 31 | 301 | 1.6 | 3.2 | 0.00 | 0.00 | 0.00 | 15 | 1012.0 |
| 20260501215933 | 31 | 236 | 0.0 | 1.6 | 0.00 | 0.00 | 0.00 | 15 | 1012.0 |
| 20260501215430 | 31 | 321 | 9.7 | 11.3 | 0.00 | 0.00 | 0.00 | 15 | 1012.2 |
| 20260501214926 | 31 | 202 | 1.6 | 3.2 | 0.00 | 0.00 | 0.00 | 15 | 1012.1 |
| 20260501214421 | 31 | 337 | 3.2 | 4.8 | 0.00 | 0.00 | 0.00 | 15 | 1012.1 |
| 20260501213917 | 31 | 254 | 1.6 | 1.6 | 0.00 | 0.00 | 0.00 | 15 | 1012.3 |
| 20260501213414 | 31 | 283 | 1.6 | 3.2 | 0.00 | 0.00 | 0.00 | 15 | 1012.4 |
| 20260501212909 | 31 | 250 | 1.6 | 1.6 | 0.00 | 0.00 | 0.00 | 16 | 1012.6 |
| 20260501212406 | 30 | 211 | 1.6 | 3.2 | 0.00 | 0.00 | 0.00 | 17 | 1012.8 |
| 20260501211903 | 29 | 175 | 6.4 | 9.7 | 0.00 | 0.00 | 0.00 | 18 | 1012.5 |
| 20260501211400 | 30 | 207 | 4.8 | 4.8 | 0.00 | 0.00 | 0.00 | 18 | 1012.7 |
| 20260501210857 | 30 | 198 | 8.0 | 9.7 | 0.00 | 0.00 | 0.00 | 18 | 1012.7 |
| 20260501210349 | 30 | 219 | 1.6 | 3.2 | 0.00 | 0.00 | 0.00 | 18 | 1012.6 |